User: anonymous   Login
Location: Unspecified
(0.0000°N, 0.0000°E)
Time: 20:50:38
(UTC+02:00)
Language:

Iridium 12 - Orbit

View from above orbital plane
View from above orbital plane
View from above satellite
View from above satellite

Ground track
Ground track

The orbit data is extracted from the following two-line orbital elements,

1 24837U 97030B   18113.40966507  .00000179  00000-0  52132-4 0  9998
2 24837  86.4270 220.3801 0002282  97.3664 331.0050 14.38600614 91429
Epoch (UTC): 23 April 2018 09:49:55
Eccentricity: 0.0002282
inclination: 86.4270°
perigee height: 761 km
apogee height: 765 km
right ascension of ascending node: 220.3801°
argument of perigee: 97.3664°
revolutions per day: 14.38600614
mean anomaly at epoch: 331.0050°
orbit number at epoch: 9142

The dashed part of the orbit path shows where the satellite is in the earth's shadow,  

DLR